RH
16 14 12 11 10 9 8 9 8 7 7 7 6 6 4 4 6 8 11 14 16 14 10 9 13 15 16 18 18 19 23 26 42 39 26 19 17 18 19 24 23 26 40 49 59
23 22 20 17 14 13 11 9 8 8 8 8 8 8 7 4 4 5 9 17 18 16 12 11 12 14 14 16 18 19 22 23 26 21 26 21 17 17 19 18 25 37 44 53 56
5 8 13 18 19 18 15 12 10 8 8 8 9 9 10 7 12 17 15 13 14 13 8 11 10 12 12 14 15 18 21 18 16 13 14 14 15 20 23 18 43 42 48 58 55
2 2 2 2 4 10 16 16 12 10 8 8 9 10 11 10 18 17 14 13 16 13 10 13 12 11 11 13 14 16 16 15 13 12 14 13 13 19 19 23 28 39 46 56 55
1 1 1 1 1 1 2 8 14 12 10 8 8 11 13 29 17 10 10 13 12 11 14 10 10 12 14 13 14 14 15 16 13 12 12 13 14 15 16 26 33 36 46 53 53
1 1 1 1 1 1 1 1 2 11 13 9 8 11 21 27 10 9 16 17 18 15 14 12 8 9 11 12 13 13 14 16 16 13 13 14 15 15 15 24 34 39 47 51 52
1 1 1 1 1 1 1 1 1 2 12 11 9 13 32 19 11 10 17 16 20 17 16 11 9 9 10 11 12 12 15 16 15 14 14 15 18 16 14 26 29 35 42 47 51
1 1 1 1 1 1 1 1 1 1 3 13 11 18 33 12 12 9 9 16 17 18 17 14 9 10 11 10 11 13 15 24 17 14 13 16 22 15 20 27 29 32 35 44 48
1 1 1 1 1 1 1 2 2 3 6 12 18 44 25 15 12 9 9 9 11 14 13 12 8 9 11 12 14 12 19 20 19 13 13 16 19 14 21 23 25 30 34 40 46
1 1 1 1 1 2 2 4 14 27 34 37 38 39 29 13 11 14 16 14 12 15 11 10 8 9 12 14 18 14 18 19 18 13 13 16 25 16 17 18 17 29 33 39 46
2 2 1 1 6 8 4 11 22 48 28 22 24 28 23 17 13 15 13 16 12 16 15 12 18 17 13 14 12 10 12 13 12 11 13 20 23 24 23 17 17 27 33 41 47
2 2 1 2 13 50 55 52 61 57 54 17 15 14 11 11 13 14 13 17 15 19 14 14 18 16 13 11 10 11 13 13 10 8 12 18 21 20 16 19 19 20 33 43 47
2 2 1 3 18 42 59 53 62 77 58 26 14 16 13 11 10 11 12 12 15 18 17 17 12 12 15 15 15 15 14 14 12 11 11 15 20 17 15 12 13 21 34 45 48
4 5 5 7 43 45 56 49 65 90 58 13 18 17 18 17 15 11 11 12 11 16 14 16 12 10 17 18 16 20 12 12 12 17 22 15 25 15 13 13 11 15 28 37 46
14 12 10 44 39 57 38 36 66 89 98 6 12 16 12 14 10 8 11 12 13 12 13 16 15 14 14 13 15 18 14 14 14 19 21 18 21 16 16 16 11 13 18 31 41
17 18 14 45 59 56 23 30 81 76 89 8 6 8 8 9 10 10 9 9 10 10 11 12 9 10 14 11 11 12 14 15 16 20 28 21 23 22 17 15 11 17 21 20 36
19 19 21 58 64 50 15 67 56 98 14 6 4 3 4 4 3 5 7 11 12 15 16 12 11 9 10 13 12 13 20 30 33 31 30 19 26 21 16 12 14 20 25 22 29
26 24 54 71 68 37 56 49 100 30 16 9 8 8 7 5 5 4 4 6 6 11 13 16 18 10 8 12 14 16 20 32 39 32 27 18 32 27 14 11 10 20 20 21 28
30 67 70 70 49 72 57 66 45 18 12 14 14 12 9 6 5 6 6 7 6 7 13 17 16 9 8 8 10 16 22 17 27 26 33 26 23 17 12 10 9 16 16 16 29
58 76 60 70 30 79 49 42 24 16 14 18 24 15 14 11 11 10 10 8 6 6 8 12 19 10 9 8 9 14 14 27 26 43 42 28 26 21 18 18 11 12 13 11 20
85 66 75 80 51 59 75 46 29 23 24 25 22 24 23 23 20 19 15 12 10 9 9 10 16 16 12 12 14 14 20 21 23 28 38 40 30 17 16 20 33 28 13 13 15
96 70 86 77 67 65 66 48 38 32 30 28 28 29 30 28 29 26 24 19 15 15 17 15 18 21 15 12 9 11 16 22 33 34 29 33 31 15 16 27 28 24 17 13 21
95 67 57 72 85 62 44 40 36 32 28 26 27 24 24 28 34 27 26 19 20 20 22 24 29 29 23 17 13 16 15 19 23 25 31 37 31 16 15 15 26 21 13 12 24
98 87 48 61 70 62 58 50 44 32 29 26 26 24 26 29 25 31 28 23 20 20 28 36 37 42 42 29 25 24 17 16 22 34 30 26 23 18 15 15 25 25 20 12 25
94 71 51 76 58 52 54 73 63 54 38 37 37 31 30 37 34 31 28 26 22 21 27 39 53 39 35 26 21 19 16 15 20 21 30 25 22 18 15 15 16 13 12 16 19
95 90 65 56 50 57 64 59 54 47 39 42 45 31 34 42 36 47 36 36 38 34 35 34 53 65 56 35 27 22 22 14 14 17 17 18 21 14 13 13 16 15 13 16 19
88 79 90 75 62 64 65 50 48 40 38 30 34 38 38 33 35 39 46 56 59 49 60 76 96 76 71 36 30 32 26 16 15 14 16 20 16 14 15 15 16 16 15 17 18
Wind_Speed
12 13 13 12 12 11 14 17 14 14 13 15 14 15 16 15 14 17 22 15 9 17 11 14 15 17 18 21 22 22 11 7 11 22 6 6 9 10 6 16 8 6 13 29 29
14 14 15 15 15 14 13 13 17 17 14 13 15 16 16 17 17 21 18 16 19 15 18 14 17 18 21 24 23 17 13 5 18 13 13 18 9 16 7 10 17 16 22 30 30
15 16 16 17 17 16 16 15 14 14 18 14 13 15 16 15 16 5 7 14 17 17 18 17 18 20 23 23 25 21 15 7 16 4 4 5 10 12 13 9 28 24 26 26 30
16 16 17 17 18 18 18 17 16 15 15 16 15 13 13 11 4 6 9 5 18 19 17 17 18 24 21 19 25 20 22 22 13 3 2 10 13 10 10 14 20 30 30 29 32
17 17 17 18 18 17 18 19 18 16 15 15 14 13 11 7 16 13 12 10 6 14 20 19 20 19 18 19 23 22 21 19 14 9 8 13 16 11 10 15 8 31 32 29 30
18 18 18 18 18 17 17 17 17 17 14 14 14 13 9 12 5 9 12 12 12 10 19 21 23 21 23 23 22 26 21 17 22 15 13 12 13 15 14 17 31 31 31 28 27
18 19 19 19 19 18 17 17 16 15 14 13 12 12 12 22 9 11 12 6 11 17 20 22 23 22 22 19 25 24 20 17 15 18 16 15 13 18 22 23 18 24 29 28 24
21 21 21 21 19 19 18 16 14 12 12 12 10 9 10 11 11 14 12 13 10 13 18 19 22 23 23 19 23 21 18 16 17 20 23 16 18 14 13 18 14 16 21 26 25
21 21 22 21 22 21 19 17 13 10 9 9 6 4 11 7 10 5 8 14 13 12 16 18 23 26 23 17 16 17 16 21 22 22 19 17 18 12 11 17 26 23 22 25 25
22 21 21 21 22 23 21 11 8 8 9 5 7 8 11 9 2 5 7 9 9 8 11 18 20 15 16 14 16 19 18 20 20 20 21 22 22 15 20 25 19 24 26 25 28
25 24 22 19 18 22 23 12 9 1 6 13 16 19 21 14 7 9 7 6 11 11 11 17 12 19 22 22 24 21 23 24 22 21 21 15 16 16 36 12 14 25 28 28 29
24 25 21 17 15 20 23 13 10 10 17 21 26 26 29 23 21 18 9 8 14 15 15 14 20 19 16 19 24 25 27 25 24 23 16 18 21 21 19 24 29 22 31 30 30
24 24 21 14 10 15 12 15 12 12 9 18 20 18 19 17 27 28 21 21 16 18 19 19 17 17 21 21 22 22 21 21 25 24 16 14 23 21 16 15 20 28 33 29 32
25 24 24 14 7 18 4 17 14 12 5 8 7 4 7 10 12 20 25 27 21 22 20 21 23 22 22 22 20 20 23 24 20 20 16 16 18 20 15 18 19 21 33 38 32
25 24 21 18 12 12 17 16 13 6 6 5 9 4 1 7 14 8 12 19 25 21 16 25 22 23 24 25 21 21 18 19 20 19 22 27 14 14 16 20 21 17 24 33 38
23 23 21 13 11 12 18 10 7 3 6 6 6 5 10 13 15 18 16 8 20 22 22 27 30 24 26 23 24 22 21 19 18 15 17 24 19 20 17 24 11 16 23 26 36
20 20 17 15 13 17 10 10 5 5 8 11 15 15 17 18 14 13 15 13 14 15 18 26 25 25 26 24 22 21 18 11 14 15 20 17 19 22 22 22 7 12 20 31 36
20 19 15 11 13 10 9 5 6 8 13 22 23 20 20 19 20 20 18 19 19 18 16 19 19 25 25 24 23 18 16 12 26 16 19 19 22 25 24 30 13 24 25 33 28
20 15 15 11 10 7 6 6 6 9 13 14 20 16 17 18 18 20 20 19 24 23 19 19 27 25 28 23 25 22 20 22 19 20 15 15 21 24 21 21 19 23 23 24 42
21 18 15 5 3 3 5 10 15 16 21 14 13 11 18 19 17 16 20 23 21 21 23 27 23 24 24 27 25 28 19 17 14 21 23 21 22 15 18 20 18 14 22 22 25
12 9 2 1 6 3 6 8 13 14 15 7 14 19 20 23 24 22 21 25 28 28 19 22 22 27 25 24 25 19 21 15 16 15 18 19 20 18 18 12 17 29 16 23 26
6 4 2 2 4 5 9 11 12 15 17 17 21 21 23 23 26 24 24 23 34 33 28 26 24 19 27 25 26 27 23 25 14 24 14 17 22 15 16 12 22 26 30 24 31
7 16 16 10 6 10 20 23 28 22 21 21 22 21 22 24 25 22 26 37 40 30 19 21 16 20 24 23 25 26 27 22 23 18 23 17 19 14 21 21 30 18 26 26 36
6 3 5 15 20 17 18 21 23 27 28 24 22 24 24 25 25 28 29 31 38 39 40 28 24 26 19 22 25 28 29 27 23 15 20 23 21 18 19 19 6 14 40 21 35
6 8 13 7 13 18 19 16 23 24 26 27 23 23 24 25 27 27 26 28 33 37 33 23 28 28 29 31 30 37 34 30 26 26 22 23 20 20 21 17 16 18 23 19 23
8 7 15 26 27 22 21 22 27 28 25 26 24 24 22 24 25 26 27 21 25 26 26 25 27 20 29 31 32 36 40 33 29 26 25 28 22 21 25 26 16 21 18 22 24
17 20 20 19 22 16 18 23 27 29 33 36 30 25 25 25 29 31 31 33 27 25 24 19 4 13 24 30 32 34 35 31 29 24 24 26 22 21 23 22 15 20 24 24 30
Wind_Direction
338 339 339 340 339 339 335 338 341 337 334 330 329 322 314 303 289 278 262 240 237 249 259 239 244 241 249 254 259 262 270 328 11 288 116 187 194 165 156 152 164 122 119 151 155
329 329 328 327 326 327 329 331 329 331 333 332 328 323 319 312 300 274 277 233 234 243 245 235 238 235 246 247 251 243 258 192 197 208 137 238 196 161 190 210 125 85 129 146 154
327 324 322 320 319 318 320 321 324 324 324 330 330 324 322 318 316 278 277 232 231 234 233 234 244 240 243 247 247 243 249 199 279 240 304 205 224 146 223 187 129 158 152 155 160
339 335 329 321 316 313 312 310 314 318 317 322 328 328 323 315 295 352 342 243 233 229 232 240 251 241 253 251 253 258 255 266 277 352 299 272 278 222 287 123 168 168 165 165 167
349 345 339 334 327 320 311 304 305 308 311 314 319 321 322 294 268 285 285 267 254 227 222 226 235 239 247 250 257 257 263 272 295 287 283 269 281 303 214 101 11 157 165 171 173
353 349 343 339 336 332 322 311 301 299 301 306 310 312 309 267 277 293 292 261 240 242 228 227 232 237 250 252 259 263 264 267 276 276 263 250 263 264 254 152 142 156 166 171 175
357 353 346 342 340 338 329 321 308 295 294 293 297 304 281 252 261 277 301 266 273 230 232 232 236 245 246 262 266 279 281 272 251 264 267 235 237 260 244 141 153 168 168 169 177
351 354 347 344 342 340 333 325 314 302 288 286 289 296 263 274 266 261 247 254 266 236 242 240 239 255 266 281 272 263 262 264 259 252 242 245 259 244 164 128 160 188 177 172 178
351 355 348 346 344 343 339 328 321 311 299 285 287 281 273 256 270 289 251 248 251 263 245 232 230 234 241 246 255 260 248 241 251 258 256 227 237 234 170 185 198 178 182 176 178
350 359 352 350 348 346 347 330 332 340 343 317 256 272 266 256 256 277 259 249 235 258 241 225 235 237 235 238 239 238 240 242 255 248 241 230 232 199 203 208 215 169 179 179 179
349 355 357 357 1 358 358 21 359 262 303 272 281 258 284 271 274 287 243 229 223 230 223 235 231 225 227 229 249 248 257 253 246 232 247 251 209 229 273 220 202 174 173 178 181
348 348 1 357 4 25 20 49 22 328 305 285 263 259 256 262 273 253 236 211 213 220 213 230 231 247 255 251 248 249 259 260 271 271 240 203 246 235 225 188 206 209 168 179 178
346 349 359 358 5 28 10 18 350 335 270 286 253 247 256 243 248 255 239 229 233 225 227 220 238 221 246 256 246 262 267 263 269 282 290 260 228 250 250 247 230 181 167 200 186
344 352 359 11 7 7 15 343 338 337 278 265 196 248 228 239 269 254 240 238 226 243 231 245 232 242 221 238 260 263 246 265 291 298 286 244 265 248 249 253 240 193 172 178 182
341 349 5 18 355 356 322 321 328 320 325 329 136 125 182 218 333 64 222 229 249 238 237 253 239 239 242 237 215 251 272 287 293 246 272 271 274 263 264 259 242 207 177 175 181
336 342 347 356 360 304 317 324 346 241 245 258 192 215 227 229 251 262 270 250 248 244 253 263 253 256 245 242 243 248 233 236 254 261 260 255 262 265 255 256 236 159 176 192 185
332 333 336 353 317 322 325 337 265 200 311 273 279 284 301 289 267 262 275 238 245 243 247 260 258 258 258 267 250 235 239 243 243 232 246 234 255 259 260 259 210 225 200 207 207
331 332 334 316 310 319 350 261 249 256 266 299 311 315 284 281 283 283 281 282 278 247 256 270 268 246 243 250 254 237 244 225 240 243 250 238 227 251 244 252 246 170 218 198 190
329 329 324 314 306 322 303 244 234 269 308 353 330 293 278 272 274 280 264 259 271 279 279 266 260 263 277 252 234 241 242 243 254 255 270 261 284 242 259 248 236 174 194 201 176
336 326 311 263 339 359 255 254 271 290 326 337 298 302 298 296 295 294 290 293 270 262 273 280 286 278 265 273 272 223 226 245 242 243 246 252 252 253 218 269 247 227 183 183 177
342 328 177 244 308 243 234 250 288 304 324 326 307 305 299 297 295 288 281 287 288 293 287 280 283 281 280 263 261 270 217 219 252 231 241 253 250 257 265 188 312 296 189 185 184
306 275 254 131 269 229 243 258 293 289 296 288 284 282 280 285 285 281 274 269 287 297 293 291 282 276 278 276 266 259 262 210 223 245 240 244 253 257 285 170 194 232 259 198 179
287 275 269 243 254 258 266 264 262 272 276 280 278 275 278 276 275 267 273 275 280 280 282 294 289 280 280 277 260 253 254 232 217 231 251 233 255 224 258 277 192 243 219 196 178
286 287 305 225 246 266 278 278 281 278 278 281 280 278 275 269 267 272 270 269 270 275 276 290 277 271 265 269 282 277 247 249 222 224 238 245 259 232 246 249 175 194 256 193 172
251 253 261 269 263 264 266 276 279 282 284 283 280 275 279 282 283 275 280 279 270 265 270 274 272 269 273 265 262 262 255 243 235 223 236 239 239 241 257 242 215 231 189 162 161
256 259 267 271 277 279 276 275 279 284 285 281 283 281 284 285 275 281 289 281 279 279 284 256 267 296 269 262 262 254 265 241 244 215 235 241 236 244 246 260 200 208 209 179 176
256 263 261 266 270 270 268 274 279 283 278 276 275 287 281 274 281 291 289 285 279 273 275 291 275 275 260 252 248 243 249 241 238 232 229 237 238 224 247 255 252 191 204 197 184